�N����,����,�~����,�C��,���x,�C��,����,���ϕ���,�ő�u�ԕ���,�ő厞����,���˗�,�I�_���x,�n�����x,�ő啗���N��,DTYPE
"23/02/02","00:10",0.0,6.5,84.9,1011.2,292.8,3.1,4.5,305.9,0.00,4.2,5.3,"00:09:20",1
"23/02/02","00:20",0.0,6.3,85.0,1011.2,292.8,2.8,4.0,320.2,0.00,4.0,5.6,"00:11:28",1
"23/02/02","00:30",0.0,6.2,85.2,1011.2,299.0,3.4,4.7,337.0,0.00,3.9,5.6,"00:20:48",1
"23/02/02","00:40",0.0,6.1,85.3,1011.4,291.0,2.7,4.3,265.2,0.00,3.9,5.6,"00:30:40",1
"23/02/02","00:50",0.0,6.1,85.5,1011.4,297.0,3.1,4.3,315.6,0.00,3.9,5.5,"00:43:16",1
"23/02/02","01:00",0.0,5.9,85.7,1011.4,294.9,2.6,5.1,291.9,0.00,3.7,5.5,"00:51:00",1
"23/02/02","01:10",0.0,5.8,86.0,1011.4,308.9,2.6,6.2,325.4,0.00,3.7,5.5,"01:07:14",1
"23/02/02","01:20",0.0,5.9,85.9,1011.6,289.9,2.8,6.2,313.5,0.00,3.8,5.6,"01:13:52",1
"23/02/02","01:30",0.0,5.8,86.1,1011.9,287.6,2.0,3.1,344.2,0.00,3.7,5.5,"01:29:20",1
"23/02/02","01:40",0.0,5.7,86.0,1011.6,296.1,2.7,5.9,344.4,0.00,3.6,5.6,"01:30:48",1
"23/02/02","01:50",0.0,5.6,85.9,1011.9,307.2,1.3,2.5,310.8,0.00,3.5,5.6,"01:48:00",1
"23/02/02","02:00",0.0,5.4,85.9,1011.9,299.9,1.5,3.1,313.7,0.00,3.3,5.4,"01:59:54",1
"23/02/02","02:10",0.0,5.4,85.4,1011.9,312.0,2.5,5.4,334.9,0.00,3.2,5.5,"02:02:40",1
"23/02/02","02:20",0.0,5.5,84.7,1011.9,303.0,2.3,4.3,342.3,0.00,3.2,5.3,"02:12:40",1
"23/02/02","02:30",0.0,5.6,83.5,1012.8,305.5,3.0,4.1,311.7,0.00,3.1,5.5,"02:23:38",1
"23/02/02","02:40",0.0,5.6,82.5,1012.8,321.2,3.4,6.5,346.5,0.00,2.9,5.5,"02:30:56",1
"23/02/02","02:50",0.0,5.6,81.8,1012.6,322.8,1.6,3.4,305.9,0.00,2.8,5.2,"02:46:16",1
"23/02/02","03:00",0.0,5.4,81.5,1012.6,254.1,1.3,2.9,247.9,0.00,2.5,5.3,"02:57:10",1
"23/02/02","03:10",0.0,5.3,81.6,1013.0,267.2,1.2,3.6,322.1,0.00,2.5,5.4,"03:07:24",1
"23/02/02","03:20",0.0,5.2,81.7,1012.6,310.3,2.5,4.4,321.3,0.00,2.4,5.4,"03:17:14",1
"23/02/02","03:30",0.0,5.1,82.0,1013.3,299.8,1.7,2.8,271.6,0.00,2.3,5.2,"03:26:18",1
"23/02/02","03:40",0.0,5.1,82.1,1012.6,296.4,1.3,3.1,267.4,0.00,2.3,5.5,"03:33:34",1
"23/02/02","03:50",0.0,4.9,82.6,1013.0,250.4,1.0,1.9,266.3,0.00,2.2,5.4,"03:43:56",1
"23/02/02","04:00",0.0,4.7,83.0,1012.8,272.0,1.7,2.9,253.6,0.00,2.1,5.5,"03:58:50",1
"23/02/02","04:10",0.0,4.7,82.9,1012.8,264.9,1.3,5.0,248.1,0.00,2.1,5.5,"04:00:34",1
"23/02/02","04:20",0.0,4.6,83.0,1013.3,277.0,1.7,3.2,264.6,0.00,2.0,5.4,"04:19:56",1
"23/02/02","04:30",0.0,4.5,82.8,1013.5,297.8,2.2,4.1,295.4,0.00,1.9,5.4,"04:23:36",1
"23/02/02","04:40",0.0,4.5,82.7,1013.3,331.4,1.7,3.6,333.7,0.00,1.9,5.4,"04:32:00",1
"23/02/02","04:50",0.0,4.4,82.7,1013.0,293.8,1.8,4.2,263.4,0.00,1.8,5.3,"04:49:28",1
"23/02/02","05:00",0.0,4.3,82.7,1013.8,303.9,2.3,3.5,334.8,0.00,1.7,5.6,"04:51:36",1
"23/02/02","05:10",0.0,4.3,82.9,1013.5,303.3,3.0,6.6,331.9,0.00,1.7,5.4,"05:06:24",1
"23/02/02","05:20",0.0,4.1,83.0,1013.5,286.9,2.3,4.4,292.4,0.00,1.5,5.2,"05:18:34",1
"23/02/02","05:30",0.0,4.1,83.1,1013.8,300.5,2.6,4.1,306.6,0.00,1.5,5.3,"05:29:36",1
"23/02/02","05:40",0.0,4.0,83.1,1013.8,294.2,1.5,2.2,328.8,0.00,1.4,5.2,"05:30:16",1
"23/02/02","05:50",0.0,4.0,83.1,1014.2,258.8,1.1,2.4,241.6,0.00,1.4,5.5,"05:43:28",1
"23/02/02","06:00",0.0,3.8,83.2,1014.0,287.0,1.3,2.2,318.9,0.00,1.3,5.3,"05:55:54",1
"23/02/02","06:10",0.0,3.5,83.4,1014.5,318.9,1.0,1.8,317.1,0.00,1.0,5.4,"06:09:48",1
"23/02/02","06:20",0.0,3.2,84.0,1014.2,343.1,1.0,1.9,345.2,0.00,0.8,5.6,"06:13:38",1
"23/02/02","06:30",0.0,2.8,84.7,1014.5,324.3,1.6,2.7,338.2,0.00,0.5,5.5,"06:22:10",1
"23/02/02","06:40",0.0,2.6,85.5,1014.7,327.2,1.1,1.8,340.2,0.00,0.5,5.4,"06:38:42",1
"23/02/02","06:50",0.0,2.5,86.6,1014.5,351.3,1.6,2.9,331.2,0.00,0.5,5.2,"06:48:16",1
"23/02/02","07:00",0.0,3.1,87.0,1015.2,344.8,2.5,4.4,340.9,0.00,1.2,5.4,"06:58:52",1
"23/02/02","07:10",0.0,3.3,86.9,1015.4,347.0,2.3,3.5,350.7,0.00,1.4,5.2,"07:00:42",1
"23/02/02","07:20",0.0,3.3,86.6,1014.9,346.4,1.8,2.8,357.5,0.00,1.3,5.3,"07:13:36",1
"23/02/02","07:30",0.0,3.1,86.5,1015.4,339.9,1.7,3.2,343.3,0.00,1.1,5.3,"07:23:12",1
"23/02/02","07:40",0.0,2.8,86.9,1015.6,333.8,1.6,2.5,339.7,0.00,0.9,5.3,"07:37:30",1
"23/02/02","07:50",0.0,2.4,87.4,1015.6,305.5,1.5,1.7,306.4,0.00,0.6,5.2,"07:41:16",1
"23/02/02","08:00",0.0,2.3,88.1,1015.2,308.4,1.5,2.1,325.5,0.00,0.6,5.0,"07:56:02",1
"23/02/02","08:10",0.0,2.2,88.9,1015.2,301.6,2.0,2.4,307.5,0.00,0.6,5.2,"08:09:30",1
"23/02/02","08:20",0.0,2.4,89.5,1015.2,329.4,2.0,2.7,332.7,0.01,0.9,5.0,"08:16:56",1
"23/02/02","08:30",0.0,2.5,90.2,1015.6,323.2,2.6,4.5,326.1,0.02,1.1,5.2,"08:25:58",1
"23/02/02","08:40",0.0,2.9,90.4,1015.9,322.8,2.7,3.6,340.2,0.03,1.5,5.2,"08:31:30",1
"23/02/02","08:50",0.0,3.2,90.5,1016.1,300.2,2.3,3.1,333.1,0.04,1.8,5.2,"08:48:06",1
"23/02/02","09:00",0.0,3.5,90.2,1016.6,316.8,2.3,3.7,325.4,0.05,2.1,5.1,"08:51:16",1
"23/02/02","09:10",0.0,3.8,89.8,1016.6,316.4,2.5,3.9,343.6,0.08,2.3,5.3,"09:03:24",1
"23/02/02","09:20",0.0,4.2,88.4,1016.4,314.0,3.0,4.5,330.2,0.08,2.5,5.2,"09:11:36",1
"23/02/02","09:30",0.0,4.3,86.6,1016.8,315.7,3.4,5.1,290.3,0.10,2.3,5.3,"09:27:44",1
"23/02/02","09:40",0.0,4.9,84.6,1017.3,329.4,2.8,6.4,313.8,0.14,2.6,5.2,"09:30:02",1
"23/02/02","09:50",0.0,5.1,82.1,1017.5,328.7,3.1,5.1,318.3,0.16,2.3,5.2,"09:42:16",1
"23/02/02","10:00",0.0,5.5,79.8,1017.3,332.4,3.2,5.2,334.2,0.19,2.3,5.3,"09:56:48",1
"23/02/02","10:10",0.0,5.8,77.6,1017.5,334.6,3.0,5.5,347.9,0.21,2.2,5.4,"10:04:56",1
"23/02/02","10:20",0.0,5.7,75.8,1018.0,336.4,3.1,6.4,345.2,0.19,1.8,5.0,"10:17:20",1
"23/02/02","10:30",0.0,5.9,74.8,1018.0,336.9,2.3,5.4,332.2,0.23,1.8,5.1,"10:22:56",1
"23/02/02","10:40",0.0,6.1,73.5,1018.0,323.4,2.7,6.6,330.0,0.22,1.8,5.2,"10:39:06",1
"23/02/02","10:50",0.0,6.1,72.9,1018.0,341.4,3.2,7.0,338.0,0.25,1.7,5.2,"10:44:16",1
"23/02/02","11:00",0.0,6.5,72.3,1018.0,338.3,2.2,4.0,342.1,0.28,1.9,5.2,"10:54:50",1
"23/02/02","11:10",0.0,5.9,71.5,1017.8,331.0,5.0,7.3,331.3,0.28,1.2,5.3,"11:06:26",1
"23/02/02","11:20",0.0,6.5,70.9,1017.3,323.8,3.0,9.0,333.1,0.31,1.6,5.4,"11:10:02",1
"23/02/02","11:30",0.0,6.2,69.2,1017.3,330.2,5.5,11.4,341.3,0.25,1.0,5.5,"11:20:26",1
"23/02/02","11:40",0.0,6.4,68.3,1017.3,335.2,4.9,9.6,337.2,0.29,1.0,5.3,"11:39:14",1
"23/02/02","11:50",0.0,6.5,67.5,1017.3,340.6,3.7,8.2,348.2,0.24,1.0,5.5,"11:43:22",1
"23/02/02","12:00",0.0,6.2,67.4,1016.6,347.4,3.1,7.3,333.9,0.13,0.7,5.3,"11:55:04",1
"23/02/02","12:10",0.0,6.2,66.9,1016.8,337.1,3.9,9.1,336.6,0.26,0.6,5.6,"12:07:44",1
"23/02/02","12:20",0.0,6.0,66.7,1016.1,339.2,5.4,9.3,336.3,0.22,0.3,5.7,"12:15:04",1
"23/02/02","12:30",0.0,6.4,66.2,1016.1,343.8,4.0,6.4,348.0,0.22,0.6,5.6,"12:27:28",1
"23/02/02","12:40",0.0,6.4,65.0,1015.9,340.9,2.8,8.0,336.8,0.19,0.3,5.7,"12:35:00",1
"23/02/02","12:50",0.0,6.8,64.4,1015.9,341.1,3.0,5.2,348.7,0.27,0.6,5.8,"12:47:18",1
"23/02/02","13:00",0.0,6.8,63.3,1015.6,333.8,4.1,7.3,318.1,0.27,0.4,5.9,"12:55:10",1
"23/02/02","13:10",0.0,6.8,63.4,1015.6,339.3,3.7,7.2,347.3,0.30,0.4,5.7,"13:01:04",1
"23/02/02","13:20",0.0,6.9,62.1,1015.9,333.5,3.6,5.9,0.0,0.22,0.2,6.0,"13:12:16",1
"23/02/02","13:30",0.0,6.4,61.9,1015.6,347.8,4.0,9.6,327.1,0.15,-0.3,5.7,"13:27:38",1
"23/02/02","13:40",0.0,6.1,63.4,1014.9,341.6,4.7,8.0,325.8,0.12,-0.3,6.2,"13:34:36",1
"23/02/02","13:50",0.0,6.9,62.1,1015.2,322.4,2.6,6.7,329.5,0.26,0.2,5.8,"13:43:44",1
"23/02/02","14:00",0.0,6.6,62.1,1015.2,338.8,3.4,6.8,323.2,0.13,-0.1,6.0,"13:59:36",1
"23/02/02","14:10",0.0,6.2,61.9,1015.2,341.9,4.4,10.6,323.1,0.14,-0.5,6.1,"14:09:14",1
"23/02/02","14:20",0.0,6.6,62.5,1015.4,327.7,3.7,6.8,321.8,0.25,0.0,6.2,"14:11:20",1
"23/02/02","14:30",0.0,7.0,59.6,1015.4,344.6,3.0,7.2,347.6,0.23,-0.3,6.1,"14:29:04",1
"23/02/02","14:40",0.0,6.6,59.5,1015.4,327.1,3.2,7.9,317.2,0.08,-0.7,6.0,"14:39:20",1
"23/02/02","14:50",0.0,6.2,61.6,1015.4,336.2,4.4,9.4,330.3,0.07,-0.6,6.0,"14:46:50",1
"23/02/02","15:00",0.0,6.1,62.8,1015.2,336.2,3.6,6.4,309.4,0.09,-0.4,6.0,"14:50:16",1
"23/02/02","15:10",0.0,6.1,62.6,1015.2,320.6,2.7,5.8,335.6,0.06,-0.5,6.0,"15:07:20",1
"23/02/02","15:20",0.0,6.1,63.3,1015.2,333.1,1.8,4.4,329.8,0.04,-0.3,6.3,"15:19:28",1
"23/02/02","15:30",0.0,6.1,63.1,1015.2,299.8,2.3,4.5,264.3,0.09,-0.3,6.2,"15:23:54",1
"23/02/02","15:40",0.0,6.3,63.9,1015.4,304.3,1.6,3.6,339.8,0.09,0.0,6.3,"15:36:16",1
"23/02/02","15:50",0.0,6.0,63.5,1015.2,302.2,3.0,5.5,333.1,0.02,-0.4,6.4,"15:46:40",1
"23/02/02","16:00",0.0,5.8,64.4,1015.6,337.0,2.2,5.4,317.2,0.01,-0.4,6.3,"15:54:32",1
"23/02/02","16:10",0.0,5.7,65.5,1015.6,346.0,2.2,4.8,358.8,0.02,-0.2,6.2,"16:03:36",1
"23/02/02","16:20",0.0,5.6,65.6,1015.6,335.8,1.7,2.9,325.5,0.02,-0.3,6.1,"16:13:52",1
"23/02/02","16:30",0.0,5.7,65.3,1015.9,338.0,1.7,2.8,356.2,0.02,-0.3,6.2,"16:22:16",1
"23/02/02","16:40",0.0,5.6,65.8,1015.9,326.9,2.1,4.2,324.0,0.02,-0.2,6.2,"16:38:32",1
"23/02/02","16:50",0.0,5.4,66.4,1015.9,315.6,2.7,4.7,343.6,0.01,-0.3,6.3,"16:45:20",1
"23/02/02","17:00",0.0,5.4,66.4,1016.1,328.7,3.0,5.7,337.7,0.01,-0.3,6.2,"16:51:44",1
"23/02/02","17:10",0.0,5.3,66.5,1016.4,334.8,2.1,3.4,343.6,0.00,-0.4,6.3,"17:00:24",1
"23/02/02","17:20",0.0,5.2,67.0,1016.4,330.9,2.6,3.9,340.8,0.00,-0.4,6.2,"17:14:32",1
"23/02/02","17:30",0.0,5.1,67.7,1016.6,335.9,2.0,3.5,334.7,0.00,-0.3,6.4,"17:25:36",1
"23/02/02","17:40",0.0,5.1,67.8,1016.4,334.4,2.6,3.6,337.9,0.00,-0.3,6.3,"17:32:16",1
"23/02/02","17:50",0.0,5.0,67.9,1016.6,320.9,3.0,5.1,327.6,0.00,-0.4,6.4,"17:42:10",1
"23/02/02","18:00",0.0,5.0,68.1,1016.6,336.2,1.7,3.4,329.7,0.00,-0.3,6.1,"17:50:16",1
"23/02/02","18:10",0.0,4.8,68.5,1016.6,319.4,2.1,3.1,338.5,0.00,-0.5,6.2,"18:01:22",1
"23/02/02","18:20",0.0,4.9,69.0,1017.1,322.2,2.3,3.3,342.9,0.00,-0.3,6.2,"18:12:22",1
"23/02/02","18:30",0.0,4.7,69.6,1016.6,326.6,2.6,4.1,329.6,0.00,-0.3,6.4,"18:28:56",1
"23/02/02","18:40",0.0,4.7,69.5,1016.6,321.6,2.3,4.1,342.6,0.00,-0.4,6.3,"18:30:08",1
"23/02/02","18:50",0.0,4.7,70.0,1016.6,299.0,2.2,3.6,324.9,0.00,-0.3,6.1,"18:40:08",1
"23/02/02","19:00",0.0,4.5,70.5,1016.8,306.9,1.8,2.8,335.7,0.00,-0.4,6.2,"18:54:02",1
"23/02/02","19:10",0.0,4.4,71.4,1016.6,311.0,1.8,2.5,336.2,0.00,-0.3,6.3,"19:05:38",1
"23/02/02","19:20",0.0,4.3,72.8,1016.6,328.0,1.6,2.0,324.1,0.00,-0.1,6.1,"19:14:08",1
"23/02/02","19:30",0.0,4.2,74.1,1016.6,333.9,1.5,2.4,334.1,0.00,0.0,6.2,"19:22:24",1
"23/02/02","19:40",0.0,3.9,75.0,1016.6,315.2,1.8,2.5,315.0,0.00,-0.1,6.2,"19:33:04",1
"23/02/02","19:50",0.0,3.9,75.5,1016.1,327.9,1.3,2.0,336.4,0.00,0.0,6.3,"19:43:44",1
"23/02/02","20:00",0.0,3.8,76.2,1015.9,328.9,1.8,2.1,338.7,0.00,0.0,6.3,"19:55:06",1
"23/02/02","20:10",0.0,3.7,76.9,1016.4,327.5,1.7,2.6,337.0,0.00,0.1,5.9,"20:08:14",1
"23/02/02","20:20",0.0,3.4,77.6,1016.1,322.1,1.6,2.0,333.3,0.00,-0.1,6.2,"20:19:58",1
"23/02/02","20:30",0.0,3.3,78.4,1016.1,326.8,1.6,1.8,324.2,0.00,-0.1,5.7,"20:22:32",1
"23/02/02","20:40",0.0,3.2,79.2,1015.9,325.6,1.8,2.1,321.3,0.00,0.0,6.1,"20:38:24",1
"23/02/02","20:50",0.0,3.3,79.6,1015.9,328.7,2.5,3.6,326.1,0.00,0.2,6.1,"20:44:50",1
"23/02/02","21:00",0.0,3.4,79.9,1015.9,333.8,2.2,3.3,328.0,0.00,0.3,6.0,"20:59:20",1
"23/02/02","21:10",0.0,3.3,80.5,1015.9,331.3,2.2,2.9,338.9,0.00,0.3,6.0,"21:01:18",1
"23/02/02","21:20",0.0,3.3,80.7,1015.9,317.5,2.8,3.7,315.4,0.00,0.3,5.9,"21:12:26",1
"23/02/02","21:30",0.0,3.3,80.9,1015.9,306.1,1.8,2.2,299.1,0.00,0.4,5.9,"21:22:10",1
"23/02/02","21:40",0.0,3.2,81.2,1016.1,307.4,2.3,3.1,305.2,0.00,0.3,6.1,"21:38:56",1
"23/02/02","21:50",0.0,3.2,81.3,1015.6,313.5,2.6,3.9,323.2,0.00,0.3,5.9,"21:47:14",1
"23/02/02","22:00",0.0,3.2,81.4,1015.2,309.7,1.8,2.7,325.3,0.00,0.4,6.0,"21:58:34",1
"23/02/02","22:10",0.0,3.1,81.6,1015.4,314.7,2.0,2.0,292.8,0.00,0.3,5.9,"22:00:50",1
"23/02/02","22:20",0.0,3.1,81.8,1015.6,322.8,2.0,2.0,330.4,0.00,0.3,6.0,"22:18:12",1
"23/02/02","22:30",0.0,3.1,81.9,1015.6,312.8,2.5,2.5,316.6,0.00,0.4,5.9,"22:23:08",1
"23/02/02","22:40",0.0,3.1,82.2,1015.9,339.6,1.3,1.4,329.2,0.00,0.4,6.0,"22:30:02",1
"23/02/02","22:50",0.0,3.0,82.7,1015.9,297.7,1.4,1.4,297.7,0.00,0.4,6.1,"22:45:30",1
"23/02/02","23:00",0.0,3.0,83.3,1016.1,291.7,1.8,1.8,300.3,0.00,0.5,5.8,"22:56:46",1
"23/02/02","23:10",0.0,3.0,83.7,1016.1,296.9,1.6,1.6,294.6,0.00,0.6,5.8,"23:05:22",1
"23/02/02","23:20",0.0,3.0,84.0,1016.1,297.8,1.9,1.9,302.7,0.00,0.6,5.9,"23:11:24",1
"23/02/02","23:30",0.0,3.0,84.4,1016.4,321.9,1.6,1.6,321.9,0.00,0.7,5.7,"23:27:52",1
"23/02/02","23:40",0.0,2.9,84.8,1015.9,309.6,1.4,1.4,309.6,0.00,0.6,5.7,"23:38:06",1
"23/02/02","23:50",0.0,2.8,85.1,1015.9,291.1,0.9,0.9,292.3,0.00,0.6,5.9,"23:43:58",1
"23/02/02","24:00",0.0,2.8,85.4,1015.6,297.7,1.1,1.1,297.7,0.00,0.6,5.7,"23:56:50",1
